{"data":{"norad_id":49431,"intl_designator":"2021-104Z","name":"STARLINK-3153","alt_names":[],"object_type":"PAYLOAD","status":"ACTIVE","operator":null,"country":"US","launch_date":"2021-11-13","launch_site_code":"AFETR","launch_vehicle":null,"mission":null,"orbit_class":"UNKNOWN","rcs_meters":null,"size_class":null,"mass_kg":null,"dimensions":null,"purposes":["comms"],"wikipedia_slug":null,"has_3d_model":false,"image_url":null,"decayed_at":null,"tle_current":{"epoch":"2026-09-20T01:24:13.914432Z","epoch_age_seconds":79519,"freshness":"FRESH","line1":"1 49431U 21104Z   26263.05849438 -.00001285  00000+0 -26923-4 0  9992","line2":"2 49431  53.1600  63.4424 0001264  70.0881 290.0257 15.34382749268151","mean_motion":15.34382749,"eccentricity":0.0001264,"inclination_deg":53.16,"raan_deg":63.4424,"arg_perigee_deg":70.0881,"mean_anomaly_deg":290.0257,"bstar":-2.6923e-5,"rev_number":26815,"period_min":93.848813207688,"perigee_km":461.88982560757,"apogee_km":463.61920298238,"semimajor_km":6840.891514295,"source":"CELESTRAK","updated_at":"2026-09-20T09:00:39.259290Z"}}}